Regional Weather Roundup
Issued by NWS

Home | Current Version | Previous Version | Graphics & Text | Print | Product List | Glossary On
Versions: 1 2 3 4 5 6 7 8 9 10 11 12 13 14 15 16 17 18 19 20 21 22 23 24 25 26 27 28 29 30 31 32 33 34 35 36 37 38 39 40 41 42 43 44 45 46 47 48 49 50
711
ASUS43 KLSX 211757
RWRMO

WEATHER SUMMARY FOR MISSOURI
NATIONAL WEATHER SERVICE SPRINGFIELD MO
100 PM CDT THU SEP 21 2017

NOTE: "FAIR" INDICATES FEW OR NO CLOUDS BELOW 12,000 FEET WITH NO
       SIGNIFICANT WEATHER AND/OR OBSTRUCTIONS TO VISIBILITY.
       CURRENT SKY AND/OR WEATHER CONDITIONS ARE NOT AVAILABLE FOR
       CHILLICOTHE AND FARMINGTON.

MOZ001>031-035>038-043-044-053-054-211900-
...NORTHERN AND WESTERN MISSOURI...

CITY           SKY/WX    TMP DP  RH WIND       PRES   REMARKS
KANSAS CTY INT MOSUNNY   88  74  63 S16G25    29.90F HX  96
6HR MIN TEMP:  76; 6HR MAX TEMP:  88;

LEE`S SUMMIT   SUNNY     89  74  60 S14G26    29.92F HX  98
6HR MIN TEMP:  74; 6HR MAX TEMP:  89;

ST JOSEPH      SUNNY     91  74  57 S15G24    29.87F HX 100
6HR MIN TEMP:  73; 6HR MAX TEMP:  91;

CHILLICOTHE      N/A     83  74  74 E12G17    29.95F
6HR MIN TEMP:  74; 6HR MAX TEMP:  83;


$$
MOZ066>068-077>081-088>096-101>105-211900-
...SOUTHWEST MISSOURI...

CITY           SKY/WX    TMP DP  RH WIND       PRES   REMARKS
SPRINGFIELD    MOSUNNY   89  71  55 S15G21    30.00F HX  95
6HR MIN TEMP:  73; 6HR MAX TEMP:  89;

JOPLIN         MOSUNNY   88  75  65 S13       29.96F HX  97
6HR MIN TEMP:  74; 6HR MAX TEMP:  88;

BRANSON        MOSUNNY   90  68  48 S12G17    30.04S HX  93

$$
MOZ032>034-039>042-045>050-055>058-069>072-211900-
...CENTRAL MISSOURI...

CITY           SKY/WX    TMP DP  RH WIND       PRES   REMARKS
COLUMBIA       NOT AVBL
JEFFERSON CITY MOSUNNY   89  71  55 VRB7      29.98F HX  95
6HR MIN TEMP:  71; 6HR MAX TEMP:  89;

SEDALIA        MOSUNNY   91  75  59 S15G21    29.99F HX 101
6HR MIN TEMP:  75; 6HR MAX TEMP:  91;

WARRENSBURG    SUNNY     88  72  58 SE12G20   29.95S HX  94

$$
MOZ051-052-059>065-211900-
...EAST CENTRAL MISSOURI...

CITY           SKY/WX    TMP DP  RH WIND       PRES   REMARKS
ST LOUIS INTL  CLOUDY    85  73  67 E6        30.03F HX  91
6HR MIN TEMP:  75; 6HR MAX TEMP:  85;


$$
MOZ072>076-082>087-097>100-106>115-211900-
...SOUTH CENTRAL AND SOUTHEAST MISSOURI...

CITY           SKY/WX    TMP DP  RH WIND       PRES   REMARKS
CAPE GIRARDEAU PTSUNNY   90  71  53 VRB5      30.03F HX  96
6HR MIN TEMP:  68; 6HR MAX TEMP:  91;

POPLAR BLUFF   MOSUNNY   91  71  51 S9        30.03F HX  97
6HR MIN TEMP:  66; 6HR MAX TEMP:  92;

WEST PLAINS    MOSUNNY   87  69  54 S10       30.06F HX  91
6HR MIN TEMP:  70; 6HR MAX TEMP:  88;


$$



USA.gov is the U.S. government's official web portal to all federal, state and local government web resources and services.